Theta_e
327 329 330 330 333 336 335 336 336 338 337 338 342 340 341 345 346 345 344 345 344 344 344 345 349 349 350 350 351 350 351 351 350
324 327 330 330 333 334 336 332 332 335 335 336 340 341 342 343 346 345 345 346 346 345 345 345 347 349 349 350 351 351 350 349 350
318 321 323 326 332 333 335 335 333 334 338 339 340 340 339 343 343 347 347 347 345 345 346 345 345 347 348 348 348 350 350 349 350
318 320 323 327 331 334 333 335 336 336 336 337 338 340 340 340 340 343 348 348 346 346 347 346 345 347 346 346 346 349 348 349 350
320 329 329 330 332 333 333 334 334 334 336 336 338 340 341 340 341 341 342 346 348 348 345 346 345 346 348 348 347 349 348 348 350
323 333 334 333 331 332 333 333 334 334 334 335 337 339 340 341 341 341 341 342 348 347 346 346 347 347 347 348 349 347 348 348 349
330 333 334 334 333 336 334 333 334 336 337 339 338 338 337 337 340 344 347 349 349 347 347 346 346 347 348 349 347 347 347 347 348
330 329 330 331 332 333 336 340 337 336 338 339 340 339 339 338 340 342 345 348 348 349 348 348 348 347 346 347 345 345 344 345 346
326 325 328 330 333 334 335 337 340 342 342 343 343 339 339 343 345 347 345 345 348 346 347 347 348 347 348 345 345 338 337 343 344
322 325 328 329 330 331 334 337 340 339 341 345 342 342 343 343 345 345 344 345 344 343 345 345 344 346 345 344 344 335 335 339 343
321 323 325 326 327 331 334 338 340 339 338 338 340 339 339 340 342 341 343 340 338 340 340 341 343 340 341 343 344 333 332 337 345
324 323 323 324 325 326 328 332 338 336 332 331 332 334 334 335 339 340 342 339 337 339 339 332 331 332 332 331 333 330 328 333 344
325 324 323 323 324 324 323 325 326 325 329 328 328 332 334 334 336 337 340 342 340 337 334 332 333 331 333 329 332 327 324 330 343
326 326 324 323 323 321 322 323 326 324 323 322 326 331 331 332 333 334 337 340 343 336 333 332 332 331 329 329 330 330 322 321 338
316 318 322 323 320 320 321 322 324 324 323 326 327 328 328 329 331 332 334 336 335 340 335 330 329 327 326 329 329 323 322 319 326
317 319 317 318 317 317 318 319 322 322 324 326 325 327 327 328 329 329 330 331 331 335 334 329 326 326 325 326 328 330 319 318 316
315 315 315 316 316 316 317 319 320 320 322 325 326 325 326 326 326 325 327 330 330 330 334 332 327 325 325 326 325 327 327 327 325
312 313 316 318 319 318 319 321 322 324 325 325 323 324 323 323 324 323 324 326 327 327 331 331 331 329 326 325 324 325 315 321 328
316 318 318 316 316 315 316 318 319 321 323 323 321 320 321 320 321 322 323 323 325 316 313 309 308 308 316 325 311 305 305 303 306
315 317 316 315 315 316 317 318 319 321 323 323 321 320 320 321 319 322 323 324 324 325 325 307 304 303 302 301 310 304 303 301 303
Wind_Speed
4 7 6 7 5 6 7 7 6 6 3 2 10 13 12 11 12 7 6 6 6 6 5 6 5 7 6 8 7 6 5 3 3
5 7 7 8 5 5 7 8 7 7 7 6 8 13 3 5 3 5 6 7 4 5 5 5 5 7 8 7 7 6 5 4 5
3 8 8 3 5 5 4 6 6 5 6 4 5 5 4 3 5 5 5 5 6 7 6 6 5 6 6 6 6 6 6 5 5
6 8 8 6 5 3 5 4 5 5 6 6 6 6 6 6 6 6 5 5 6 7 5 6 6 6 6 7 8 6 6 7 6
8 6 6 6 5 4 4 5 4 5 3 4 7 3 4 8 7 4 4 7 8 7 9 6 7 7 6 6 6 7 8 8 7
7 6 8 8 7 3 3 5 6 5 5 6 5 5 4 5 2 5 8 12 13 9 9 8 6 6 7 8 8 7 8 9 9
6 4 7 6 8 8 5 6 5 3 3 4 4 4 5 5 5 5 8 11 12 10 8 7 7 8 7 7 6 7 7 7 8
6 6 7 7 7 7 9 7 5 6 4 4 3 6 5 3 4 6 8 11 10 7 7 9 8 7 8 8 7 7 8 8 9
5 6 6 6 7 8 7 7 7 6 6 6 5 5 4 2 3 4 5 6 6 5 3 6 6 8 8 8 7 11 13 9 7
5 4 4 5 4 5 4 4 5 7 7 9 11 9 7 5 4 5 9 7 5 4 4 4 4 7 5 4 7 12 15 16 9
5 4 3 3 2 1 2 2 4 4 5 6 6 6 5 5 5 7 7 5 4 4 5 7 9 10 9 6 7 13 16 17 14
2 2 3 3 3 2 0 2 2 4 5 5 5 5 4 4 5 4 4 2 2 3 9 13 9 6 6 7 7 13 13 9 8
4 5 3 3 2 2 3 2 1 3 2 3 2 2 2 4 4 4 4 2 2 4 7 8 7 7 2 3 8 9 12 9 5
4 5 7 4 4 5 5 5 3 3 2 5 3 2 1 1 3 4 4 3 2 5 6 4 2 4 5 5 15 10 12 12 6
5 6 3 3 3 5 5 4 3 6 6 4 1 3 3 2 2 3 2 4 3 6 6 3 5 4 7 9 12 12 14 14 15
5 4 4 3 4 6 6 4 2 6 7 4 5 4 4 3 3 4 5 4 3 3 5 4 5 6 8 12 10 7 13 15 9
4 5 6 5 6 7 8 7 5 6 7 4 4 5 5 4 4 5 5 5 3 4 6 8 7 8 11 11 2 3 2 2 4
6 5 3 3 4 5 7 7 8 8 6 4 5 4 5 5 4 6 6 7 8 7 8 8 8 11 8 5 4 2 5 5 5
2 3 3 4 6 6 8 7 9 10 7 6 6 6 5 5 5 5 5 6 8 12 17 10 14 12 7 3 4 3 5 5 9
4 5 6 6 8 9 8 10 11 10 9 7 7 8 10 7 6 6 6 5 7 8 10 13 10 12 12 13 8 10 11 12 10
Wind_Direction
259 296 296 282 210 168 150 144 164 158 160 195 224 198 220 224 208 199 210 213 201 221 209 208 194 200 204 212 205 197 190 207 219
235 287 274 260 229 201 158 162 187 163 174 202 191 199 183 226 188 202 216 221 207 215 216 217 200 204 209 215 206 203 182 207 233
229 268 271 71 129 189 188 176 202 170 171 191 191 203 148 200 227 234 234 225 230 223 222 209 191 209 204 206 211 195 184 209 230
333 324 335 8 80 156 175 177 183 216 177 185 213 208 166 187 224 235 231 235 241 228 227 213 198 207 208 214 212 212 192 216 222
343 337 3 14 44 136 169 188 198 208 239 210 245 259 215 198 189 230 282 287 270 241 219 213 207 198 199 209 220 217 196 214 221
343 14 31 22 18 16 269 210 200 194 189 215 221 201 230 280 313 313 295 274 262 231 216 208 206 211 206 215 215 204 207 207 214
21 44 52 44 37 16 346 306 316 292 245 199 192 258 241 238 248 249 265 282 245 216 206 207 201 208 216 218 212 210 214 201 219
49 46 39 31 25 19 10 9 359 343 328 292 221 191 219 250 259 257 268 269 246 226 206 214 208 203 206 205 198 208 208 210 222
67 46 38 39 38 37 24 21 37 33 1 346 328 1 60 19 289 270 270 247 253 245 220 245 215 218 220 210 214 210 194 188 218
96 90 81 75 59 44 46 53 57 44 36 54 59 59 48 43 1 23 29 351 10 17 348 310 260 271 225 238 266 237 214 198 207
87 86 102 91 97 120 4 38 71 64 53 53 61 58 47 26 19 27 53 82 95 68 38 360 20 28 0 329 267 272 237 218 213
172 226 215 229 230 225 196 68 49 71 58 64 72 58 42 22 28 44 68 53 78 93 84 95 104 87 32 353 343 316 279 258 237
256 255 256 260 245 272 309 289 100 63 34 14 32 85 37 347 12 34 41 59 78 118 145 143 142 133 244 226 271 258 288 226 200
224 244 261 262 278 277 281 299 329 320 307 280 228 199 196 347 354 350 335 331 229 212 208 183 89 199 234 231 246 231 231 227 196
310 292 289 262 258 262 272 271 259 278 281 265 241 205 225 212 265 295 290 301 303 253 264 209 241 220 236 239 240 228 210 229 201
262 287 322 335 330 317 309 313 265 277 267 337 321 312 291 278 244 263 276 265 253 267 230 226 242 229 243 255 307 311 195 198 229
293 310 316 334 333 322 312 322 306 245 278 278 263 268 267 257 248 254 252 267 241 230 239 231 226 231 238 246 294 336 126 217 256
273 290 309 322 317 310 295 306 304 297 288 289 258 245 258 257 240 238 243 238 250 226 229 224 226 242 236 257 241 245 267 212 185
209 220 278 309 300 288 281 288 285 285 281 264 270 278 274 250 243 250 237 237 261 248 242 229 237 245 240 239 153 209 153 169 199
272 295 306 299 291 290 292 292 287 281 272 268 266 279 284 274 248 248 248 236 234 256 276 232 254 250 234 220 239 196 192 167 162